Regional Weather Roundup
Issued by NWS

Home | Current Version | Previous Version | Text Only | Print | Product List | Glossary On
Versions: 1 2 3 4 5 6 7 8 9 10 11 12 13 14 15 16 17 18 19 20 21 22 23 24 25 26 27 28 29 30 31 32 33 34 35 36 37 38 39 40 41 42 43 44 45 46 47 48 49 50
000
ASUS43 KMKX 231300
RWRWI

WISCONSIN REGIONAL WEATHER ROUNDUP
NATIONAL WEATHER SERVICE MILWAUKEE/SULLIVAN WI
700 AM CST THU NOV 23 2017

NOTE: "FAIR" INDICATES FEW OR NO CLOUDS BELOW 12,000 FEET WITH NO
SIGNIFICANT WEATHER AND/OR OBSTRUCTIONS TO VISIBILITY.

WIZ001-002-006>008-014>016-023>028-231400-
NORTHWEST WISCONSIN

CITY           SKY/WX    TMP DP  RH WIND       PRES   REMARKS
SUPERIOR ARPT  CLOUDY    18  17  93 SW7       29.93F WCI   9
ASHLAND        CLEAR     20  16  84 SW5       29.92S WCI  13
HAYWARD        CLEAR     18  15  88 CALM      29.91S
SIREN          CLOUDY    17  16  94 CALM      29.93S
CUMBERLAND     CLOUDY    18  16  93 CALM      29.92F
RICE LAKE      CLOUDY    19  17  92 CALM      29.95R
CHETEK         CLOUDY    18  17  95 CALM      29.93R
LADYSMITH      CLEAR     24  21  89 CALM      29.93S
EAU CLAIRE     NOT AVBL
MENOMONIE      CLOUDY    20  18  89 CALM      29.95R
NEW RICHMOND   CLOUDY    17  14  88 CALM      29.94S
OSCEOLA        CLOUDY    16  14  90 CALM      29.98R
$$

WIZ003>005-009-010-017-018-231400-
NORTH CENTRAL WISCONSIN

CITY           SKY/WX    TMP DP  RH WIND       PRES   REMARKS
MANITOWISH WTR CLOUDY    23  20  89 SW3       29.88S
ARBOR VITAE    CLOUDY    24  21  88 CALM      29.88R
WOODRUFF       CLOUDY    24  21  88 CALM      29.88R
RHINELANDER    CLOUDY    25  21  85 SW5       29.89R WCI  19
EAGLE RIVER    CLOUDY    24  19  80 SW3       29.87S
LAND O LAKES   CLOUDY    22  19  90 CALM      29.89R
PHILLIPS       CLOUDY    24  20  85 CALM      29.89S
TOMAHAWK       CLOUDY    24  19  81 CALM      29.91R
MEDFORD        CLOUDY    18  15  90 CALM      29.89S
MERRILL        CLOUDY    20  19  96 CALM      29.92S
$$

WIZ029-030-035-036-043>047-231400-
CENTRAL WISCONSIN

CITY           SKY/WX    TMP DP  RH WIND       PRES   REMARKS
WAUSAU         CLOUDY    23  18  81 CALM      29.91S
MOSINEE        PTCLDY    21  19  93 CALM      29.92F
MARSHFIELD     CLOUDY    22  15  75 CALM      29.90F
STEVENS POINT  CLOUDY    17  16  95 CALM      29.93F
WAUPACA        CLOUDY    27  22  82 CALM      29.96S
WAUTOMA        CLOUDY    27  21  78 CALM      29.95F
WISC RAPIDS    CLOUDY    20  17  88 CALM      29.94F
CAMP DOUGLAS   CLOUDY    22  15  75 CALM      29.93S
$$

WIZ011>013-019>022-031-037>040-048>050-231400-
NORTHEAST WISCONSIN

CITY           SKY/WX    TMP DP  RH WIND       PRES   REMARKS
ANTIGO         CLEAR     22  19  91 CALM      29.90F
SHAWANO        CLOUDY    28  23  81 CALM      29.94F
OCONTO         NOT AVBL
STURGEON BAY   CLOUDY    30  24  78 SW6       29.96F WCI  24
GREEN BAY      CLEAR     29  22  75 S5        29.96F WCI  24
MANITOWOC      CLEAR     29  20  69 SW6       29.98F WCI  23
APPLETON       MOCLDY    28  19  69 SW6       29.94S WCI  22
CLINTONVILLE   CLOUDY    25  21  86 S3        29.94F
OSHKOSH        CLOUDY    31  22  69 S7        29.95S WCI  24
$$

WIZ032>034-041-042-053>061-231400-
SOUTHWEST WISCONSIN

CITY           SKY/WX    TMP DP  RH WIND       PRES   REMARKS
LA CROSSE      CLOUDY    26  19  74 CALM      29.95S
SPARTA         CLOUDY    21  17  83 CALM      29.95S
VIROQUA        CLOUDY    26  19  75 S5        29.93R WCI  21
BOSCOBEL       CLOUDY    26  17  68 CALM      29.97R
PRAIRIE DU CHI PTCLDY    28  18  65 CALM      29.96S
PLATTEVILLE    CLOUDY    27  21  79 S8        29.96S WCI  18
$$

WIZ056-057-062-063-064-067-068-231400-
SOUTH CENTRAL WISCONSIN

CITY           SKY/WX    TMP DP  RH WIND       PRES   REMARKS
REEDSBURG      CLOUDY    29  18  63 CALM      29.95R
BARABOO/DELLS  CLOUDY    29  17  61 SW5       29.94S WCI  24
LONE ROCK      CLOUDY    24  19  81 CALM      29.97R
MINERAL POINT  CLOUDY    30  21  69 S5        29.95S WCI  25
MADISON        MOCLDY    32  20  61 S8        29.96S WCI  25
MIDDLETON      CLOUDY    33  20  59 SW6       29.97S WCI  27
WATERTOWN      MOCLDY    31  20  65 S5        29.97S WCI  26
MONROE         CLOUDY    28  21  74 S10       29.95S WCI  19
JANESVILLE       N/A     30  21  69 SW6       29.98S WCI  24
$$

WIZ051-052-058>065-066-070>072-231400-
SOUTHEAST WISCONSIN

CITY           SKY/WX    TMP DP  RH WIND       PRES   REMARKS
MILWAUKEE      MOCLDY    34  21  59 SW9       29.99F WCI  27
WAUKESHA       CLOUDY    30  18  59 SW5       29.99S WCI  25
MILWAUKEE/TIMM PTCLDY    32  18  55 S3        29.99F
RACINE         CLOUDY    33  20  58 SW7       30.01F WCI  27
BURLINGTON     CLEAR     33  26  75 SW9       29.99S WCI  25
KENOSHA        CLOUDY    34  19  54 S10       30.00F WCI  26
FOND DU LAC    CLOUDY    32  19  58 S7        29.96F WCI  26
SHEBOYGAN      CLOUDY    29  22  75 S6        29.98S WCI  23
WEST BEND      CLOUDY    32  19  59 SW5       29.97F WCI  27
JUNEAU         CLOUDY    31  20  63 S5        29.98S WCI  26
$$

LSZ147-162-231400-
LAKE SUPERIOR

STATION/POSITION TIME  TEMP    WIND        PRES    WAVE
                       AIR SEA DIR/SP/G            HT/PER
                 (UTC) (F)     (DEG/KT/KT) (MB)    (FT/S)
DEVILS ISLAND    1200   29     260/ 14/ 16 1013.3F
SAXON HARBOR     1240   26     190/  5/  7 1012.5F
$$

LMZ867-665-643>646-231400-
LAKE MICHIGAN

STATION/POSITION TIME  TEMP    WIND        PRES    WAVE
                       AIR SEA DIR/SP/G            HT/PER
                 (UTC) (F)     (DEG/KT/KT) (MB)    (FT/S)
N MID LAKE BUOY  1150   33 47  240/ 16/ 19 1015.3F   4/ 5
NORTHPORT PIER   1240   32     260/  4/ 11 1014.2S
KEWAUNEE LAKESHO 1230   31     240/  5/ 10 1014.2R
SHEBOYGAN LAKESH 1200   33     220/ 10/ 12 1015.9F
PORT WASHINGTON  1240   34     230/  5/  7 1016.6S
MILWAUKEE LAKESH 1230   34     210/  9/ 11   N/A
S MID LAKE BUOY  1150   38 47  250/ 17/ 21 1017.9S   3/ 5
KENOSHA   LAKESH 1200   33     200/  9/ 14 1016.6
$$

TC  - TEMPERATURE IN CELSIUS
VSB - VISIBILITY IN STATUTE MILES
WCI - WIND CHILL INDEX
HX  - HEAT INDEX




USA.gov is the U.S. government's official web portal to all federal, state and local government web resources and services.